Location: Nena
(32.3271°N, 96.8558°W)
Time: 10:51:42
(UTC+00:00)

Cosmos 1703 Rocket - Pass Details

Date: 06 October 2022
Orbit: 605 x 631 km, 82.5° (Epoch: 06 December)

Event Time Altitude Azimuth Distance (km) Brightness Sun altitude
Rises 12:00:09 0° 182° (S) 2,868 7.0 -6.0°
Reaches altitude 10° 12:02:22 10° 180° (S) 1,963 6.2 -5.6°
Maximum altitude 12:06:42 77° 95° (E) 629 3.8 -4.7°
Drops below altitude 10° 12:11:02 10° 10° (N) 1,963 6.2 -3.7°
Sets 12:13:15 0° 8° (N) 2,868 7.0 -3.3°
